Year,Month,Day,Hour,Minute,Value (Times are PST for temperature in C)
2009,07,30,00,00,14.30
2009,07,30,00,01,14.40
2009,07,30,00,02,14.40
2009,07,30,00,03,14.40
2009,07,30,00,04,14.50
2009,07,30,00,05,14.50
2009,07,30,00,06,14.50
2009,07,30,00,07,14.50
2009,07,30,00,08,14.50
2009,07,30,00,09,14.60
2009,07,30,00,10,14.60
2009,07,30,00,11,14.60
2009,07,30,00,12,14.60
2009,07,30,00,13,14.70
2009,07,30,00,14,14.70
2009,07,30,00,15,14.80
2009,07,30,00,16,14.80
2009,07,30,00,17,14.80
2009,07,30,00,18,14.80
2009,07,30,00,19,14.90
2009,07,30,00,20,14.90
2009,07,30,00,21,14.90
2009,07,30,00,22,14.90
2009,07,30,00,23,14.90
2009,07,30,00,24,15.00
2009,07,30,00,25,15.00
2009,07,30,00,26,15.00
2009,07,30,00,27,15.10
2009,07,30,00,28,15.10
2009,07,30,00,29,15.20
2009,07,30,00,30,15.30
2009,07,30,00,31,15.30
2009,07,30,00,32,15.30
2009,07,30,00,33,15.30
2009,07,30,00,34,15.30
2009,07,30,00,35,15.30
2009,07,30,00,36,15.40
2009,07,30,00,37,15.40
2009,07,30,00,38,15.40
2009,07,30,00,39,15.40
2009,07,30,00,40,15.40
2009,07,30,00,41,15.40
2009,07,30,00,42,15.40
2009,07,30,00,43,15.50
2009,07,30,00,44,15.50
2009,07,30,00,45,15.50
2009,07,30,00,46,15.50
2009,07,30,00,47,15.50
2009,07,30,00,48,15.60
2009,07,30,00,49,15.60
2009,07,30,00,50,15.60
2009,07,30,00,51,15.50
2009,07,30,00,52,15.50
2009,07,30,00,53,15.50
2009,07,30,00,54,15.50
2009,07,30,00,55,15.50
2009,07,30,00,56,15.40
2009,07,30,00,57,15.40
2009,07,30,00,58,15.40
2009,07,30,00,59,15.40
2009,07,30,01,00,15.30
2009,07,30,01,01,15.30
2009,07,30,01,02,15.30
2009,07,30,01,03,15.30
2009,07,30,01,04,15.30
2009,07,30,01,05,15.40
2009,07,30,01,06,15.40
2009,07,30,01,07,15.40
2009,07,30,01,08,15.40
2009,07,30,01,09,15.50
2009,07,30,01,10,15.50
2009,07,30,01,11,15.50
2009,07,30,01,12,15.40
2009,07,30,01,13,15.40
2009,07,30,01,14,15.40
2009,07,30,01,15,15.50
2009,07,30,01,16,15.50
2009,07,30,01,17,15.50
2009,07,30,01,18,15.50
2009,07,30,01,19,15.50
2009,07,30,01,20,15.50
2009,07,30,01,21,15.50
2009,07,30,01,22,15.50
2009,07,30,01,23,15.50
2009,07,30,01,24,15.50
2009,07,30,01,25,15.40
2009,07,30,01,26,15.40
2009,07,30,01,27,15.40
2009,07,30,01,28,15.40
2009,07,30,01,29,15.50
2009,07,30,01,30,15.50
2009,07,30,01,31,15.50
2009,07,30,01,32,15.60
2009,07,30,01,33,15.60
2009,07,30,01,34,15.60
2009,07,30,01,35,15.60
2009,07,30,01,36,15.70
2009,07,30,01,37,15.70
2009,07,30,01,38,15.80
2009,07,30,01,39,15.80
2009,07,30,01,40,15.80
2009,07,30,01,41,15.80
2009,07,30,01,42,15.80
2009,07,30,01,43,15.90
2009,07,30,01,44,15.90
2009,07,30,01,45,15.90
2009,07,30,01,46,15.90
2009,07,30,01,47,15.90
2009,07,30,01,48,15.90
2009,07,30,01,49,15.90
2009,07,30,01,50,15.90
2009,07,30,01,51,15.90
2009,07,30,01,52,16.10
2009,07,30,01,53,16.10
2009,07,30,01,54,16.10
2009,07,30,01,55,16.10
2009,07,30,01,56,16.10
2009,07,30,01,57,16.10
2009,07,30,01,58,16.20
2009,07,30,01,59,16.20
2009,07,30,02,00,16.20
2009,07,30,02,01,16.30
2009,07,30,02,02,16.30
2009,07,30,02,03,16.30
2009,07,30,02,04,16.30
2009,07,30,02,05,16.30
2009,07,30,02,06,16.30
2009,07,30,02,07,16.30
2009,07,30,02,08,16.30
2009,07,30,02,09,16.30
2009,07,30,02,10,16.30
2009,07,30,02,11,16.20
2009,07,30,02,12,16.20
2009,07,30,02,13,16.20
2009,07,30,02,14,16.10
2009,07,30,02,15,16.10
2009,07,30,02,16,16.10
2009,07,30,02,17,16.10
2009,07,30,02,18,16.00
2009,07,30,02,19,15.90
2009,07,30,02,20,15.90
2009,07,30,02,21,15.90
2009,07,30,02,22,15.90
2009,07,30,02,23,15.90
2009,07,30,02,24,15.80
2009,07,30,02,25,15.80
2009,07,30,02,26,15.80
2009,07,30,02,27,15.80
2009,07,30,02,28,15.80
2009,07,30,02,29,15.70
2009,07,30,02,30,15.70
2009,07,30,02,31,15.70
2009,07,30,02,32,15.60
2009,07,30,02,33,15.60
2009,07,30,02,34,15.50
2009,07,30,02,35,15.50
2009,07,30,02,36,15.50
2009,07,30,02,37,15.40
2009,07,30,02,38,15.40
2009,07,30,02,39,15.30
2009,07,30,02,40,15.30
2009,07,30,02,41,15.30
2009,07,30,02,42,15.30
2009,07,30,02,43,15.30
2009,07,30,02,44,15.30
2009,07,30,02,45,15.30
2009,07,30,02,46,15.30
2009,07,30,02,47,15.30
2009,07,30,02,48,15.20
2009,07,30,02,49,15.20
2009,07,30,02,50,15.20
2009,07,30,02,51,15.20
2009,07,30,02,52,15.20
2009,07,30,02,53,15.20
2009,07,30,02,54,15.10
2009,07,30,02,55,15.10
2009,07,30,02,56,15.10
2009,07,30,02,57,15.10
2009,07,30,02,58,15.10
2009,07,30,02,59,15.10
2009,07,30,03,00,15.10
2009,07,30,03,01,15.10
2009,07,30,03,02,15.10
2009,07,30,03,03,15.10
2009,07,30,03,04,15.10
2009,07,30,03,05,15.10
2009,07,30,03,06,15.10
2009,07,30,03,07,15.10
2009,07,30,03,08,15.10
2009,07,30,03,09,15.10
2009,07,30,03,10,15.10
2009,07,30,03,11,15.10
2009,07,30,03,12,15.10
2009,07,30,03,13,15.10
2009,07,30,03,14,15.10
2009,07,30,03,15,15.10
2009,07,30,03,16,15.20
2009,07,30,03,17,15.20
2009,07,30,03,18,15.20
2009,07,30,03,19,15.20
2009,07,30,03,20,15.10
2009,07,30,03,21,15.10
2009,07,30,03,22,15.10
2009,07,30,03,23,15.10
2009,07,30,03,24,15.10
2009,07,30,03,25,15.10
2009,07,30,03,26,15.10
2009,07,30,03,27,15.00
2009,07,30,03,28,15.00
2009,07,30,03,29,15.00
2009,07,30,03,30,15.00
2009,07,30,03,31,15.00
2009,07,30,03,32,15.00
2009,07,30,03,33,15.00
2009,07,30,03,34,14.90
2009,07,30,03,35,14.90
2009,07,30,03,36,14.90
2009,07,30,03,37,14.90
2009,07,30,03,38,14.90
2009,07,30,03,39,14.90
2009,07,30,03,40,14.90
2009,07,30,03,41,14.90
2009,07,30,03,42,14.90
2009,07,30,03,43,14.90
2009,07,30,03,44,14.90
2009,07,30,03,45,14.90
2009,07,30,03,46,14.90
2009,07,30,03,47,14.90
2009,07,30,03,48,14.90
2009,07,30,03,49,14.90
2009,07,30,03,50,14.90
2009,07,30,03,51,14.90
2009,07,30,03,52,14.90
2009,07,30,03,53,14.90
2009,07,30,03,54,14.90
2009,07,30,03,55,14.90
2009,07,30,03,56,14.90
2009,07,30,03,57,14.90
2009,07,30,03,58,14.90
2009,07,30,03,59,14.90
2009,07,30,04,00,14.90
2009,07,30,04,01,14.90
2009,07,30,04,02,14.90
2009,07,30,04,03,14.90
2009,07,30,04,04,14.90
2009,07,30,04,05,14.90
2009,07,30,04,06,14.90
2009,07,30,04,07,14.90
2009,07,30,04,08,14.90
2009,07,30,04,09,14.90
2009,07,30,04,10,14.90
2009,07,30,04,11,14.90
2009,07,30,04,12,14.90
2009,07,30,04,13,14.90
2009,07,30,04,14,14.90
2009,07,30,04,15,14.90
2009,07,30,04,16,14.90
2009,07,30,04,17,14.90
2009,07,30,04,18,14.90
2009,07,30,04,19,14.90
2009,07,30,04,20,14.90
2009,07,30,04,21,14.90
2009,07,30,04,22,15.00
2009,07,30,04,23,15.00
2009,07,30,04,24,15.00
2009,07,30,04,25,15.00
2009,07,30,04,26,15.00
2009,07,30,04,27,15.00
2009,07,30,04,28,15.10
2009,07,30,04,29,15.10
2009,07,30,04,30,15.10
2009,07,30,04,31,15.20
2009,07,30,04,32,15.20
2009,07,30,04,33,15.20
2009,07,30,04,34,15.20
2009,07,30,04,35,15.30
2009,07,30,04,36,15.30
2009,07,30,04,37,15.30
2009,07,30,04,38,15.30
2009,07,30,04,39,15.30
2009,07,30,04,40,15.40
2009,07,30,04,41,15.40
2009,07,30,04,42,15.40
2009,07,30,04,43,15.50
2009,07,30,04,44,15.50
2009,07,30,04,45,15.50
2009,07,30,04,46,15.50
2009,07,30,04,47,15.50
2009,07,30,04,48,15.60
2009,07,30,04,49,15.60
2009,07,30,04,50,15.60
2009,07,30,04,51,15.60
2009,07,30,04,52,15.60
2009,07,30,04,53,15.60
2009,07,30,04,54,15.60
2009,07,30,04,55,15.50
2009,07,30,04,56,15.50
2009,07,30,04,57,15.50
2009,07,30,04,58,15.40
2009,07,30,04,59,15.30
2009,07,30,05,00,15.30
2009,07,30,05,01,15.20
2009,07,30,05,02,15.10
2009,07,30,05,03,14.90
2009,07,30,05,04,14.70
2009,07,30,05,05,14.60
2009,07,30,05,06,14.50
2009,07,30,05,07,14.40
2009,07,30,05,08,14.30
2009,07,30,05,09,14.20
2009,07,30,05,10,14.10
2009,07,30,05,11,14.00
2009,07,30,05,12,13.90
2009,07,30,05,13,13.90
2009,07,30,05,14,13.80
2009,07,30,05,15,13.70
2009,07,30,05,16,13.70
2009,07,30,05,17,13.70
2009,07,30,05,18,13.70
2009,07,30,05,19,13.70
2009,07,30,05,20,13.70
2009,07,30,05,21,13.60
2009,07,30,05,22,13.60
2009,07,30,05,23,13.60
2009,07,30,05,24,13.60
2009,07,30,05,25,13.60
2009,07,30,05,26,13.60
2009,07,30,05,27,13.50
2009,07,30,05,28,13.50
2009,07,30,05,29,13.50
2009,07,30,05,30,13.50
2009,07,30,05,31,13.60
2009,07,30,05,32,13.60
2009,07,30,05,33,13.60
2009,07,30,05,34,13.60
2009,07,30,05,35,13.60
2009,07,30,05,36,13.60
2009,07,30,05,37,13.60
2009,07,30,05,38,13.70
2009,07,30,05,39,13.70
2009,07,30,05,40,13.70
2009,07,30,05,41,13.70
2009,07,30,05,42,13.80
2009,07,30,05,43,13.80
2009,07,30,05,44,13.80
2009,07,30,05,45,13.80
2009,07,30,05,46,13.80
2009,07,30,05,47,13.80
2009,07,30,05,48,13.80
2009,07,30,05,49,13.80
2009,07,30,05,50,13.90
2009,07,30,05,51,13.90
2009,07,30,05,52,13.90
2009,07,30,05,53,13.90
2009,07,30,05,54,13.90
2009,07,30,05,55,13.90
2009,07,30,05,56,13.90
2009,07,30,05,57,13.90
2009,07,30,05,58,13.90
2009,07,30,05,59,13.90
2009,07,30,06,00,14.00
2009,07,30,06,01,14.00
2009,07,30,06,02,14.00
2009,07,30,06,03,13.90
2009,07,30,06,04,13.90
2009,07,30,06,05,13.90
2009,07,30,06,06,13.90
2009,07,30,06,07,13.90
2009,07,30,06,08,13.90
2009,07,30,06,09,13.90
2009,07,30,06,10,13.90
2009,07,30,06,11,13.90
2009,07,30,06,12,13.90
2009,07,30,06,13,13.90
2009,07,30,06,14,13.90
2009,07,30,06,15,13.90
2009,07,30,06,16,13.90
2009,07,30,06,17,13.90
2009,07,30,06,18,13.90
2009,07,30,06,19,13.90
2009,07,30,06,20,13.80
2009,07,30,06,21,13.80
2009,07,30,06,22,13.80
2009,07,30,06,23,13.80
2009,07,30,06,24,13.80
2009,07,30,06,25,13.80
2009,07,30,06,26,13.80
2009,07,30,06,27,13.80
2009,07,30,06,28,13.80
2009,07,30,06,29,13.80
2009,07,30,06,30,13.80
2009,07,30,06,31,13.80
2009,07,30,06,32,13.90
2009,07,30,06,33,13.90
2009,07,30,06,34,13.90
2009,07,30,06,35,13.90
2009,07,30,06,36,13.90
2009,07,30,06,37,13.90
2009,07,30,06,38,13.90
2009,07,30,06,39,13.90
2009,07,30,06,40,14.00
2009,07,30,06,41,14.00
2009,07,30,06,42,14.00
2009,07,30,06,43,14.10
2009,07,30,06,44,14.10
2009,07,30,06,45,14.10
2009,07,30,06,46,14.10
2009,07,30,06,47,14.20
2009,07,30,06,48,14.20
2009,07,30,06,49,14.20
2009,07,30,06,50,14.20
2009,07,30,06,51,14.20
2009,07,30,06,52,14.20
2009,07,30,06,53,14.20
2009,07,30,06,54,14.20
2009,07,30,06,55,14.20
2009,07,30,06,56,14.20
2009,07,30,06,57,14.20
2009,07,30,06,58,14.20
2009,07,30,06,59,14.30
2009,07,30,07,00,14.30
2009,07,30,07,01,14.40
2009,07,30,07,02,14.40
2009,07,30,07,03,14.40
2009,07,30,07,04,14.50
2009,07,30,07,05,14.50
2009,07,30,07,06,14.60
2009,07,30,07,07,14.60
2009,07,30,07,08,14.70
2009,07,30,07,09,14.80
2009,07,30,07,10,14.80
2009,07,30,07,11,14.80
2009,07,30,07,12,14.90
2009,07,30,07,13,14.90
2009,07,30,07,14,15.00
2009,07,30,07,15,15.00
2009,07,30,07,16,15.10
2009,07,30,07,17,15.10
2009,07,30,07,18,15.20
2009,07,30,07,19,15.30
2009,07,30,07,20,15.30
2009,07,30,07,21,15.30
2009,07,30,07,22,15.30
2009,07,30,07,23,15.40
2009,07,30,07,24,15.50
2009,07,30,07,25,15.50
2009,07,30,07,26,15.60
2009,07,30,07,27,15.60
2009,07,30,07,28,15.70
2009,07,30,07,29,15.80
2009,07,30,07,30,15.80
2009,07,30,07,31,15.80
2009,07,30,07,32,15.80
2009,07,30,07,33,15.90
2009,07,30,07,34,16.00
2009,07,30,07,35,16.10
2009,07,30,07,36,16.10
2009,07,30,07,37,16.10
2009,07,30,07,38,16.20
2009,07,30,07,39,16.20
2009,07,30,07,40,16.20
2009,07,30,07,41,16.30
2009,07,30,07,42,16.30
2009,07,30,07,43,16.30
2009,07,30,07,44,16.40
2009,07,30,07,45,16.40
2009,07,30,07,46,16.40
2009,07,30,07,47,16.40
2009,07,30,07,48,16.50
2009,07,30,07,49,16.60
2009,07,30,07,50,16.60
2009,07,30,07,51,16.60
2009,07,30,07,52,16.70
2009,07,30,07,53,16.70
2009,07,30,07,54,16.70
2009,07,30,07,55,16.70
2009,07,30,07,56,16.80
2009,07,30,07,57,16.80
2009,07,30,07,58,16.90
2009,07,30,07,59,17.00
2009,07,30,08,00,17.00
2009,07,30,08,01,17.10
2009,07,30,08,02,17.10
2009,07,30,08,03,17.20
2009,07,30,08,04,17.20
2009,07,30,08,05,17.30
2009,07,30,08,06,17.30
2009,07,30,08,07,17.30
2009,07,30,08,08,17.30
2009,07,30,08,09,17.40
2009,07,30,08,10,17.50
2009,07,30,08,11,17.50
2009,07,30,08,12,17.60
2009,07,30,08,13,17.60
2009,07,30,08,14,17.70
2009,07,30,08,15,17.80
2009,07,30,08,16,17.80
2009,07,30,08,17,17.90
2009,07,30,08,18,17.90
2009,07,30,08,19,18.00
2009,07,30,08,20,18.10
2009,07,30,08,21,18.10
2009,07,30,08,22,18.10
2009,07,30,08,23,18.10
2009,07,30,08,24,18.10
2009,07,30,08,25,18.10
2009,07,30,08,26,18.20
2009,07,30,08,27,18.20
2009,07,30,08,28,18.20
2009,07,30,08,29,18.30
2009,07,30,08,30,18.40
2009,07,30,08,31,18.50
2009,07,30,08,32,18.50
2009,07,30,08,33,18.50
2009,07,30,08,34,18.40
2009,07,30,08,35,18.30
2009,07,30,08,36,18.30
2009,07,30,08,37,18.20
2009,07,30,08,38,18.20
2009,07,30,08,39,18.20
2009,07,30,08,40,18.20
2009,07,30,08,41,18.20
2009,07,30,08,42,18.20
2009,07,30,08,43,18.30
2009,07,30,08,44,18.40
2009,07,30,08,45,18.50
2009,07,30,08,46,18.60
2009,07,30,08,47,18.60
2009,07,30,08,48,18.70
2009,07,30,08,49,18.70
2009,07,30,08,50,18.60
2009,07,30,08,51,18.60
2009,07,30,08,52,18.60
2009,07,30,08,53,18.60
2009,07,30,08,54,18.50
2009,07,30,08,55,18.50
2009,07,30,08,56,18.50
2009,07,30,08,57,18.50
2009,07,30,08,58,18.60
2009,07,30,08,59,18.60
2009,07,30,09,00,18.70
2009,07,30,09,01,18.80
2009,07,30,09,02,18.90
2009,07,30,09,03,18.90
2009,07,30,09,04,19.00
2009,07,30,09,05,19.10
2009,07,30,09,06,19.20
2009,07,30,09,07,19.20
2009,07,30,09,08,19.20
2009,07,30,09,09,19.20
2009,07,30,09,10,19.10
2009,07,30,09,11,19.10
2009,07,30,09,12,18.70
2009,07,30,09,13,18.30
2009,07,30,09,14,18.10
2009,07,30,09,15,18.00
2009,07,30,09,16,17.70
2009,07,30,09,17,17.50
2009,07,30,09,18,17.40
2009,07,30,09,19,17.30
2009,07,30,09,20,17.30
2009,07,30,09,21,17.20
2009,07,30,09,22,17.10
2009,07,30,09,23,16.90
2009,07,30,09,24,16.70
2009,07,30,09,25,16.60
2009,07,30,09,26,16.40
2009,07,30,09,27,16.40
2009,07,30,09,28,16.30
2009,07,30,09,29,16.30
2009,07,30,09,30,16.30
2009,07,30,09,31,16.20
2009,07,30,09,32,16.30
2009,07,30,09,33,16.30
2009,07,30,09,34,16.40
2009,07,30,09,35,16.40
2009,07,30,09,36,16.40
2009,07,30,09,37,16.40
2009,07,30,09,38,16.40
2009,07,30,09,39,16.40
2009,07,30,09,40,16.60
2009,07,30,09,41,16.70
2009,07,30,09,42,16.80
2009,07,30,09,43,16.90
2009,07,30,09,44,17.10
2009,07,30,09,45,17.20
2009,07,30,09,46,17.40
2009,07,30,09,47,17.60
2009,07,30,09,48,17.70
2009,07,30,09,49,17.70
2009,07,30,09,50,17.70
2009,07,30,09,51,17.80
2009,07,30,09,52,17.90
2009,07,30,09,53,18.00
2009,07,30,09,54,18.10
2009,07,30,09,55,18.20
2009,07,30,09,56,18.20
2009,07,30,09,57,18.30
2009,07,30,09,58,18.40
2009,07,30,09,59,18.50
2009,07,30,10,00,18.60
2009,07,30,10,01,18.70
2009,07,30,10,02,18.70
2009,07,30,10,03,18.80
2009,07,30,10,04,18.90
2009,07,30,10,05,19.00
2009,07,30,10,06,19.10
2009,07,30,10,07,19.10
2009,07,30,10,08,19.10
2009,07,30,10,09,19.10
2009,07,30,10,10,19.10
2009,07,30,10,11,19.20
2009,07,30,10,12,19.20
2009,07,30,10,13,19.20
2009,07,30,10,14,19.20
2009,07,30,10,15,19.10
2009,07,30,10,16,19.10
2009,07,30,10,17,19.00
2009,07,30,10,18,18.90
2009,07,30,10,19,19.00
2009,07,30,10,20,19.00
2009,07,30,10,21,18.90
2009,07,30,10,22,18.80
2009,07,30,10,23,18.80
2009,07,30,10,24,18.80
2009,07,30,10,25,18.80
2009,07,30,10,26,18.70
2009,07,30,10,27,18.70
2009,07,30,10,28,18.80
2009,07,30,10,29,18.80
2009,07,30,10,30,18.80
2009,07,30,10,31,18.90
2009,07,30,10,32,18.90
2009,07,30,10,33,19.00
2009,07,30,10,34,19.10
2009,07,30,10,35,19.10
2009,07,30,10,36,18.90
2009,07,30,10,37,18.70
2009,07,30,10,38,18.50
2009,07,30,10,39,18.40
2009,07,30,10,40,18.20
2009,07,30,10,41,18.20
2009,07,30,10,42,18.00
2009,07,30,10,43,18.10
2009,07,30,10,44,18.10
2009,07,30,10,45,18.00
2009,07,30,10,46,17.90
2009,07,30,10,47,17.90
2009,07,30,10,48,17.90
2009,07,30,10,49,18.10
2009,07,30,10,50,18.20
2009,07,30,10,51,18.30
2009,07,30,10,52,18.30
2009,07,30,10,53,18.20
2009,07,30,10,54,18.20
2009,07,30,10,55,18.10
2009,07,30,10,56,17.90
2009,07,30,10,57,17.80
2009,07,30,10,58,17.60
2009,07,30,10,59,17.50
2009,07,30,11,00,17.40
2009,07,30,11,01,17.50
2009,07,30,11,02,17.50
2009,07,30,11,03,17.70
2009,07,30,11,04,17.80
2009,07,30,11,05,17.90
2009,07,30,11,06,17.90
2009,07,30,11,07,17.90
2009,07,30,11,08,17.90
2009,07,30,11,09,17.90
2009,07,30,11,10,18.00
2009,07,30,11,11,18.10
2009,07,30,11,12,18.20
2009,07,30,11,13,18.30
2009,07,30,11,14,18.40
2009,07,30,11,15,18.40
2009,07,30,11,16,18.50
2009,07,30,11,17,18.60
2009,07,30,11,18,18.50
2009,07,30,11,19,18.50
2009,07,30,11,20,18.40
2009,07,30,11,21,18.50
2009,07,30,11,22,18.60
2009,07,30,11,23,18.70
2009,07,30,11,24,18.80
2009,07,30,11,25,19.10
2009,07,30,11,26,19.30
2009,07,30,11,27,19.60
2009,07,30,11,28,19.90
2009,07,30,11,29,20.00
2009,07,30,11,30,20.20
2009,07,30,11,31,20.30
2009,07,30,11,32,20.50
2009,07,30,11,33,20.70
2009,07,30,11,34,20.80
2009,07,30,11,35,20.90
2009,07,30,11,36,20.80
2009,07,30,11,37,20.80
2009,07,30,11,38,20.70
2009,07,30,11,39,20.70
2009,07,30,11,40,20.50
2009,07,30,11,41,20.30
2009,07,30,11,42,20.20
2009,07,30,11,43,20.10
2009,07,30,11,44,19.90
2009,07,30,11,45,19.60
2009,07,30,11,46,19.40
2009,07,30,11,47,19.30
2009,07,30,11,48,19.30
2009,07,30,11,49,19.20
2009,07,30,11,50,19.20
2009,07,30,11,51,19.10
2009,07,30,11,52,19.10
2009,07,30,11,53,19.00
2009,07,30,11,54,18.90
2009,07,30,11,55,18.90
2009,07,30,11,56,19.10
2009,07,30,11,57,19.10
2009,07,30,11,58,19.10
2009,07,30,11,59,19.10
2009,07,30,12,00,19.10
2009,07,30,12,01,19.10
2009,07,30,12,02,19.10
2009,07,30,12,03,19.30
2009,07,30,12,04,19.40
2009,07,30,12,05,19.60
2009,07,30,12,06,19.60
2009,07,30,12,07,19.60
2009,07,30,12,08,19.50
2009,07,30,12,09,19.50
2009,07,30,12,10,19.50
2009,07,30,12,11,19.40
2009,07,30,12,12,19.40
2009,07,30,12,13,19.50
2009,07,30,12,14,19.50
2009,07,30,12,15,19.50
2009,07,30,12,16,19.60
2009,07,30,12,17,19.60
2009,07,30,12,18,19.60
2009,07,30,12,19,19.60
2009,07,30,12,20,19.70
2009,07,30,12,21,19.70
2009,07,30,12,22,19.70
2009,07,30,12,23,19.70
2009,07,30,12,24,19.80
2009,07,30,12,25,19.80
2009,07,30,12,26,19.80
2009,07,30,12,27,19.90
2009,07,30,12,28,20.00
2009,07,30,12,29,20.10
2009,07,30,12,30,20.30
2009,07,30,12,31,20.50
2009,07,30,12,32,20.80
2009,07,30,12,33,21.10
2009,07,30,12,34,21.40
2009,07,30,12,35,21.60
2009,07,30,12,36,21.90
2009,07,30,12,37,22.10
2009,07,30,12,38,22.20
2009,07,30,12,39,22.40
2009,07,30,12,40,22.50
2009,07,30,12,41,22.50
2009,07,30,12,42,22.60
2009,07,30,12,43,22.60
2009,07,30,12,44,22.80
2009,07,30,12,45,22.90
2009,07,30,12,46,22.90
2009,07,30,12,47,23.00
2009,07,30,12,48,23.10
2009,07,30,12,49,23.20
2009,07,30,12,50,23.30
2009,07,30,12,51,23.40
2009,07,30,12,52,23.60
2009,07,30,12,53,23.70
2009,07,30,12,54,23.70
2009,07,30,12,55,23.70
2009,07,30,12,56,23.70
2009,07,30,12,57,23.60
2009,07,30,12,58,23.40
2009,07,30,12,59,23.40
2009,07,30,13,00,23.40
2009,07,30,13,01,23.30
2009,07,30,13,02,23.40
2009,07,30,13,03,23.60
2009,07,30,13,04,23.70
2009,07,30,13,05,23.90
2009,07,30,13,06,24.10
2009,07,30,13,07,24.10
2009,07,30,13,08,24.20
2009,07,30,13,09,24.30
2009,07,30,13,10,24.30
2009,07,30,13,11,24.30
2009,07,30,13,12,24.40
2009,07,30,13,13,24.40
2009,07,30,13,14,24.40
2009,07,30,13,15,24.40
2009,07,30,13,16,24.30
2009,07,30,13,17,24.30
2009,07,30,13,18,24.30
2009,07,30,13,19,24.30
2009,07,30,13,20,24.30
2009,07,30,13,21,24.40
2009,07,30,13,22,24.50
2009,07,30,13,23,24.50
2009,07,30,13,24,24.40
2009,07,30,13,25,24.50
2009,07,30,13,26,24.40
2009,07,30,13,27,24.30
2009,07,30,13,28,24.20
2009,07,30,13,29,24.10
2009,07,30,13,30,24.10
2009,07,30,13,31,24.10
2009,07,30,13,32,24.00
2009,07,30,13,33,23.80
2009,07,30,13,34,23.60
2009,07,30,13,35,23.30
2009,07,30,13,36,23.20
2009,07,30,13,37,23.00
2009,07,30,13,38,22.90
2009,07,30,13,39,22.90
2009,07,30,13,40,23.00
2009,07,30,13,41,23.20
2009,07,30,13,42,23.20
2009,07,30,13,43,23.10
2009,07,30,13,44,23.00
2009,07,30,13,45,22.90
2009,07,30,13,46,22.90
2009,07,30,13,47,22.70
2009,07,30,13,48,22.70
2009,07,30,13,49,22.70
2009,07,30,13,50,22.70
2009,07,30,13,51,22.60
2009,07,30,13,52,22.60
2009,07,30,13,53,22.50
2009,07,30,13,54,22.50
2009,07,30,13,55,22.50
2009,07,30,13,56,22.50
2009,07,30,13,57,22.40
2009,07,30,13,58,22.40
2009,07,30,13,59,22.40
2009,07,30,14,00,22.40
2009,07,30,14,01,22.60
2009,07,30,14,02,22.70
2009,07,30,14,03,22.80
2009,07,30,14,04,22.90
2009,07,30,14,05,23.00
2009,07,30,14,06,23.20
2009,07,30,14,07,23.20
2009,07,30,14,08,23.10
2009,07,30,14,09,23.00
2009,07,30,14,10,22.90
2009,07,30,14,11,22.90
2009,07,30,14,12,22.90
2009,07,30,14,13,23.10
2009,07,30,14,14,23.20
2009,07,30,14,15,23.30
2009,07,30,14,16,23.40
2009,07,30,14,17,23.50
2009,07,30,14,18,23.60
2009,07,30,14,19,23.70
2009,07,30,14,20,23.70
2009,07,30,14,21,23.60
2009,07,30,14,22,23.40
2009,07,30,14,23,23.30
2009,07,30,14,24,23.20
2009,07,30,14,25,23.10
2009,07,30,14,26,23.10
2009,07,30,14,27,23.10
2009,07,30,14,28,23.10
2009,07,30,14,29,23.20
2009,07,30,14,30,23.30
2009,07,30,14,31,23.50
2009,07,30,14,32,23.70
2009,07,30,14,33,23.80
2009,07,30,14,34,23.90
2009,07,30,14,35,24.10
2009,07,30,14,36,24.30
2009,07,30,14,37,24.50
2009,07,30,14,38,24.70
2009,07,30,14,39,24.80
2009,07,30,14,40,24.90
2009,07,30,14,41,25.00
2009,07,30,14,42,24.90
2009,07,30,14,43,24.70
2009,07,30,14,44,24.40
2009,07,30,14,45,24.00
2009,07,30,14,46,23.60
2009,07,30,14,47,23.20
2009,07,30,14,48,23.00
2009,07,30,14,49,22.90
2009,07,30,14,50,22.80
2009,07,30,14,51,22.60
2009,07,30,14,52,22.30
2009,07,30,14,53,22.20
2009,07,30,14,54,22.10
2009,07,30,14,55,22.10
2009,07,30,14,56,22.10
2009,07,30,14,57,22.20
2009,07,30,14,58,22.30
2009,07,30,14,59,22.40
2009,07,30,15,00,22.60
2009,07,30,15,01,22.80
2009,07,30,15,02,22.90
2009,07,30,15,03,22.80
2009,07,30,15,04,22.70
2009,07,30,15,05,22.60
2009,07,30,15,06,22.50
2009,07,30,15,07,22.50
2009,07,30,15,08,22.50
2009,07,30,15,09,22.40
2009,07,30,15,10,22.40
2009,07,30,15,11,22.50
2009,07,30,15,12,22.60
2009,07,30,15,13,22.60
2009,07,30,15,14,22.50
2009,07,30,15,15,22.50
2009,07,30,15,16,22.70
2009,07,30,15,17,22.80
2009,07,30,15,18,23.00
2009,07,30,15,19,23.30
2009,07,30,15,20,23.50
2009,07,30,15,21,23.80
2009,07,30,15,22,24.00
2009,07,30,15,23,24.30
2009,07,30,15,24,24.50
2009,07,30,15,25,24.60
2009,07,30,15,26,24.70
2009,07,30,15,27,24.70
2009,07,30,15,28,24.60
2009,07,30,15,29,24.50
2009,07,30,15,30,24.40
2009,07,30,15,31,24.50
2009,07,30,15,32,24.60
2009,07,30,15,33,24.60
2009,07,30,15,34,24.60
2009,07,30,15,35,24.40
2009,07,30,15,36,24.10
2009,07,30,15,37,23.80
2009,07,30,15,38,23.70
2009,07,30,15,39,23.70
2009,07,30,15,40,23.60
2009,07,30,15,41,23.60
2009,07,30,15,42,23.60
2009,07,30,15,43,23.60
2009,07,30,15,44,23.70
2009,07,30,15,45,23.70
2009,07,30,15,46,23.70
2009,07,30,15,47,23.70
2009,07,30,15,48,23.70
2009,07,30,15,49,23.70
2009,07,30,15,50,23.70
2009,07,30,15,51,23.70
2009,07,30,15,52,23.80
2009,07,30,15,53,24.00
2009,07,30,15,54,24.10
2009,07,30,15,55,24.30
2009,07,30,15,56,24.50
2009,07,30,15,57,24.50
2009,07,30,15,58,24.50
2009,07,30,15,59,24.60
2009,07,30,16,00,24.50
2009,07,30,16,01,24.20
2009,07,30,16,02,24.00
2009,07,30,16,03,23.80
2009,07,30,16,04,23.60
2009,07,30,16,05,23.60
2009,07,30,16,06,23.50
2009,07,30,16,07,23.40
2009,07,30,16,08,23.30
2009,07,30,16,09,23.20
2009,07,30,16,10,23.30
2009,07,30,16,11,23.30
2009,07,30,16,12,23.30
2009,07,30,16,13,23.30
2009,07,30,16,14,23.30
2009,07,30,16,15,23.30
2009,07,30,16,16,23.30
2009,07,30,16,17,23.20
2009,07,30,16,18,23.30
2009,07,30,16,19,23.30
2009,07,30,16,20,23.30
2009,07,30,16,21,23.30
2009,07,30,16,22,23.30
2009,07,30,16,23,23.30
2009,07,30,16,24,23.30
2009,07,30,16,25,23.20
2009,07,30,16,26,23.20
2009,07,30,16,27,23.10
2009,07,30,16,28,23.00
2009,07,30,16,29,22.90
2009,07,30,16,30,22.70
2009,07,30,16,31,22.60
2009,07,30,16,32,22.50
2009,07,30,16,33,22.40
2009,07,30,16,34,22.40
2009,07,30,16,35,22.40
2009,07,30,16,36,22.30
2009,07,30,16,37,22.20
2009,07,30,16,38,22.10
2009,07,30,16,39,22.10
2009,07,30,16,40,22.20
2009,07,30,16,41,22.30
2009,07,30,16,42,22.30
2009,07,30,16,43,22.30
2009,07,30,16,44,22.00
2009,07,30,16,45,21.80
2009,07,30,16,46,21.60
2009,07,30,16,47,21.40
2009,07,30,16,48,21.30
2009,07,30,16,49,21.30
2009,07,30,16,50,21.30
2009,07,30,16,51,21.30
2009,07,30,16,52,21.30
2009,07,30,16,53,21.20
2009,07,30,16,54,21.20
2009,07,30,16,55,20.90
2009,07,30,16,56,20.50
2009,07,30,16,57,20.10
2009,07,30,16,58,19.90
2009,07,30,16,59,19.60
2009,07,30,17,00,19.40
2009,07,30,17,01,19.20
2009,07,30,17,02,19.00
2009,07,30,17,03,18.80
2009,07,30,17,04,18.60
2009,07,30,17,05,18.50
2009,07,30,17,06,18.50
2009,07,30,17,07,18.60
2009,07,30,17,08,18.70
2009,07,30,17,09,18.80
2009,07,30,17,10,18.90
2009,07,30,17,11,18.90
2009,07,30,17,12,18.80
2009,07,30,17,13,18.80
2009,07,30,17,14,18.80
2009,07,30,17,15,18.80
2009,07,30,17,16,18.80
2009,07,30,17,17,18.80
2009,07,30,17,18,18.80
2009,07,30,17,19,18.70